Great Falls, MT

3:53 PM MDT on August 30, 2016 (GMT -0600)
Great Falls International

Weather History for KGTF - April, 2012

Change the Weather History Date:

Wednesday, April 25, 2012

  Actual Average Record
Temperature  
Mean Temperature 63 °F 46 °F  
Max Temperature 76 °F 59 °F 85 °F (1910)
Min Temperature 49 °F 33 °F 18 °F (1924)
Degree Days  
Heating Degree Days 2 19  
Month to date heating degree days 445 566  
Since 1 July heating degree days 5998 7024  
Cooling Degree Days 0 0  
Month to date cooling degree days 3 0  
Year to date cooling degree days 3 0  
Growing Degree Days 12 (Base 50)    
Moisture  
Dew Point 39 °F    
Average Humidity 45    
Maximum Humidity 64    
Minimum Humidity 25    
Precipitation  
Precipitation 0.00 in 0.06 in 0.90 in (1986)
Month to date precipitation 1.46 1.16  
Year to date precipitation 3.17 3.05  
Snow  
Snow 0.00 in 0.30 in 4.90 in (1994)
Month to date snowfall 7.2 7.5  
Since 1 July snowfall 36.5 59.4  
Snow Depth 0.00 in    
Sea Level Pressure  
Sea Level Pressure 29.79 in    
Wind  
Wind Speed 8 mph (SW)    
Max Wind Speed 20 mph    
Max Gust Speed 23 mph    
Visibility 10 miles    
Events      
T = Trace of Precipitation, MM = Missing Value Source: NWS Daily Summary

Daily Weather History Graph

Daily Weather History Graph

Search for Another Location

Airport or City:

Trip Planner

Search our weather history database for the weather conditions in past years. The results will help you decide how hot, cold, wet, or windy it might be!

Date:

Astronomy

Apr. 25, 2012 Rise Set
Actual Time 6:17 AM MDT 8:29 PM MDT
Civil Twilight 5:44 AM MDT 9:03 PM MDT
Nautical Twilight 5:02 AM MDT 9:45 PM MDT
Astronomical Twilight 4:16 AM MDT 10:32 PM MDT
Moon 8:55 AM MDT (4/25) 12:02 AM MDT (4/25)
Length of Visible Light 15h 19m
Length of Day
14h 11m
Waxing Crescent, 17% of the Moon is Illuminated
Apr 25
Waxing Crescent
Apr 29
First Quarter
May 5
Full
May 12
Last Quarter
May 20
New

Hourly Weather History & Observations

Time (MDT) Temp. Dew Point Humidity Pressure Visibility Wind Dir Wind Speed Gust Speed Precip Events Conditions
12:53 AM 55.9 °F 37.0 °F 49% 29.73 in 10.0 mi SW 11.5 mph - N/A   Clear
1:53 AM 54.0 °F 37.0 °F 53% 29.76 in 10.0 mi SW 10.4 mph - N/A   Clear
2:53 AM 50.0 °F 37.4 °F 62% 29.83 in 10.0 mi SSW 9.2 mph - N/A   Clear
3:53 AM 54.0 °F 37.0 °F 53% 29.79 in 10.0 mi WSW 3.5 mph - N/A   Mostly Cloudy
4:53 AM 52.0 °F 37.9 °F 59% 29.80 in 10.0 mi SSW 8.1 mph - N/A   Mostly Cloudy
5:53 AM 51.1 °F 37.9 °F 61% 29.81 in 10.0 mi SSW 11.5 mph - N/A   Clear
6:53 AM 53.1 °F 39.9 °F 61% 29.83 in 10.0 mi SW 5.8 mph - N/A   Mostly Cloudy
7:53 AM 54.0 °F 41.0 °F 62% 29.85 in 10.0 mi SW 3.5 mph - N/A   Scattered Clouds
8:53 AM 60.1 °F 41.0 °F 49% 29.84 in 10.0 mi SW 10.4 mph - N/A   Mostly Cloudy
9:53 AM 66.0 °F 39.9 °F 38% 29.84 in 10.0 mi WSW 13.8 mph - N/A   Mostly Cloudy
10:53 AM 68.0 °F 39.9 °F 36% 29.83 in 10.0 mi SW 13.8 mph - N/A   Partly Cloudy
11:53 AM 71.1 °F 37.9 °F 30% 29.83 in 10.0 mi WSW 11.5 mph 17.3 mph N/A   Clear
12:53 PM 71.6 °F 39.2 °F 31% 29.86 in 10.0 mi SSW 8.1 mph - N/A   Clear
1:53 PM 73.0 °F 39.9 °F 30% 29.80 in 10.0 mi WSW 11.5 mph 17.3 mph N/A   Clear
2:53 PM 75.0 °F 39.0 °F 27% 29.78 in 10.0 mi West 8.1 mph 18.4 mph N/A   Partly Cloudy
3:53 PM 73.9 °F 37.9 °F 27% 29.76 in 10.0 mi Variable 3.5 mph - N/A   Scattered Clouds
4:53 PM 73.9 °F 39.0 °F 28% 29.75 in 10.0 mi SW 6.9 mph - N/A   Scattered Clouds
5:53 PM 75.0 °F 37.0 °F 25% 29.75 in 10.0 mi Calm Calm - N/A   Partly Cloudy
6:53 PM 72.0 °F 42.1 °F 34% 29.75 in 10.0 mi North 3.5 mph - N/A   Clear
7:53 PM 70.0 °F 42.1 °F 36% 29.75 in 10.0 mi NE 3.5 mph - N/A   Clear
8:53 PM 63.0 °F 39.0 °F 41% 29.75 in 10.0 mi ESE 6.9 mph - N/A   Clear
9:53 PM 63.0 °F 42.1 °F 46% 29.73 in 10.0 mi SE 6.9 mph - N/A   Overcast
10:53 PM 59.0 °F 41.0 °F 51% 29.73 in 10.0 mi South 4.6 mph - N/A   Clear
11:53 PM 55.9 °F 42.1 °F 60% 29.72 in 10.0 mi East 8.1 mph - N/A   Clear